This is the latest recevied weather packets stored in our database for station/object OK1LPD-5. If no packets are shown the sender has not sent any weather packets the latest 10 day(s).
| Time | Temp. | Humidity | Pressure | Rain* | Wind** | Luminosity | Snow |
|---|---|---|---|---|---|---|---|
| 1777141809 | 13.89° C | 39% | 1009 hPa | 0 mm | - | - | - |
| 1777141212 | 15° C | 36% | 1008.7 hPa | 0 mm | - | - | - |
| 1777140609 | 16.11° C | 33% | 1008.7 hPa | 0 mm | - | - | - |
| 1777140010 | 17.22° C | 31% | 1008.5 hPa | 0 mm | - | - | - |
| 1777139412 | 17.78° C | 30% | 1008.4 hPa | 0 mm | - | - | - |
| 1777138809 | 18.33° C | 30% | 1008.4 hPa | 0 mm | - | - | - |
| 1777138209 | 18.89° C | 29% | 1008.3 hPa | 0 mm | - | - | - |
| 1777137612 | 19.44° C | 28% | 1008.1 hPa | 0 mm | - | - | - |
| 1777137009 | 19.44° C | 28% | 1008 hPa | 0 mm | - | - | - |
| 1777136410 | 20° C | 27% | 1008 hPa | 0 mm | - | - | - |
| 1777135811 | 20° C | 26% | 1008 hPa | 0 mm | - | - | - |
| 1777135209 | 20.56° C | 26% | 1008 hPa | 0 mm | - | - | - |
| 1777134609 | 20.56° C | 25% | 1008 hPa | 0 mm | - | - | - |
| 1777134009 | 20.56° C | 25% | 1008 hPa | 0 mm | - | - | - |
| 1777133409 | 21.11° C | 26% | 1007.9 hPa | 0 mm | - | - | - |
| 1777132809 | 21.11° C | 26% | 1007.9 hPa | 0 mm | - | - | - |
| 1777132209 | 21.11° C | 26% | 1007.9 hPa | 0 mm | - | - | - |
| 1777131609 | 21.67° C | 27% | 1007.8 hPa | 0 mm | - | - | - |
| 1777131009 | 21.67° C | 28% | 1007.8 hPa | 0 mm | - | - | - |
| 1777130409 | 21.67° C | 28% | 1007.8 hPa | 0 mm | - | - | - |
| 1777129809 | 21.67° C | 29% | 1007.7 hPa | 0 mm | - | - | - |
| 1777129209 | 21.67° C | 29% | 1007.9 hPa | 0 mm | - | - | - |
| 1777128610 | 22.22° C | 29% | 1007.7 hPa | 0 mm | - | - | - |
| 1777128009 | 21.67° C | 29% | 1007.5 hPa | 0 mm | - | - | - |
| 1777127410 | 22.22° C | 27% | 1007.6 hPa | 0 mm | - | - | - |
* Rain latest hour (hover to see other rain measurements)
** Current wind speed in m/s (hover to see current wind gust speed)